EW9027 Weather Reports


Display with metric or nautical units.
time (UTC)temp
F
wind
direction
speed
MPH
gust
MPH
rain 1hr
in
rain 24hr
in
rain mn
in
humidity
%
barometer
mb
20260502231546 47 238 0.0 1.0 0.00 0.00 0.00 70 1019.6
20260502230042 47 238 0.0 1.0 0.00 0.00 0.00 70 1019.6
20260502224538 48 263 0.0 0.0 0.00 0.00 0.00 68 1019.7
20260502223036 49 264 0.0 1.0 0.00 0.00 0.00 66 1019.8
20260502221533 50 220 0.0 1.0 0.00 0.00 0.00 63 1019.8
20260502220032 50 221 0.0 3.0 0.00 0.00 0.00 65 1019.8
20260502214530 51 263 1.0 3.0 0.00 0.00 0.00 64 1019.8
20260502213034 52 229 1.0 2.0 0.00 0.00 0.00 62 1019.9
20260502211529 53 250 0.0 2.0 0.00 0.00 0.00 60 1019.9
20260502210028 53 221 0.0 1.0 0.00 0.00 0.00 59 1019.9
20260502204529 54 222 0.0 2.0 0.00 0.00 0.00 57 1020.0
20260502203028 55 205 0.0 2.0 0.00 0.00 0.00 56 1020.1
20260502201527 56 207 0.0 2.0 0.00 0.00 0.00 55 1020.0
20260502200035 56 190 1.0 3.0 0.00 0.00 0.00 54 1020.0
20260502194528 58 210 1.0 4.0 0.00 0.00 0.00 51 1020.0
20260502193025 59 198 1.0 4.0 0.00 0.00 0.00 49 1020.0
20260502191524 60 225 1.0 3.0 0.00 0.00 0.00 48 1020.0
20260502190024 62 257 1.0 3.0 0.00 0.00 0.00 45 1020.0
20260502184531 64 238 1.0 4.0 0.00 0.00 0.00 40 1019.9
20260502183023 65 184 0.0 2.0 0.00 0.00 0.00 38 1019.9
20260502181522 67 179 0.0 3.0 0.00 0.00 0.00 36 1019.8
20260502163022 75 91 1.0 3.0 0.00 0.00 0.00 26 1020.1
20260502161513 75 205 1.0 4.0 0.00 0.00 0.00 26 1020.4
20260502151506 78 97 0.0 4.0 0.00 0.00 0.00 23 1021.1
20260502123054 72 255 3.0 7.0 0.00 0.00 0.00 28 1023.1
20260502121542 73 98 1.0 5.0 0.00 0.00 0.00 25 1023.3
20260502114537 73 214 1.0 4.0 0.00 0.00 0.00 25 1023.6
20260502113039 71 219 0.0 6.0 0.00 0.00 0.00 27 1023.8
20260502111544 71 120 3.0 10.0 0.00 0.00 0.00 27 1024.0
20260502110031 72 276 3.0 6.0 0.00 0.00 0.00 26 1024.3
20260502104528 72 221 2.0 5.0 0.00 0.00 0.00 28 1024.4
20260502103025 71 55 1.0 4.0 0.00 0.00 0.00 31 1024.6
20260502101522 70 42 1.0 6.0 0.00 0.00 0.00 32 1024.8
20260502091513 68 316 2.0 6.0 0.00 0.00 0.00 36 1025.4
20260502070048 61 88 1.0 2.0 0.00 0.00 0.00 49 1026.4
20260502064543 59 61 1.0 2.0 0.00 0.00 0.00 53 1026.5
20260502063055 57 113 0.0 2.0 0.00 0.00 0.00 57 1026.6
20260502061542 56 207 0.0 1.0 0.00 0.00 0.00 57 1026.7
20260502060036 53 107 0.0 1.0 0.00 0.00 0.00 63 1026.7
20260502054529 49 219 0.0 2.0 0.00 0.00 0.00 67 1026.7
20260502053027 48 200 0.0 1.0 0.00 0.00 0.00 67 1026.7
20260502051525 47 198 0.0 1.0 0.00 0.00 0.00 69 1026.7
20260502050021 46 203 0.0 1.0 0.00 0.00 0.00 71 1026.8
20260502044518 43 203 0.0 1.0 0.00 0.00 0.00 76 1026.7
20260502043019 40 203 0.0 2.0 0.00 0.00 0.00 81 1026.7
20260502041519 38 195 0.0 1.0 0.00 0.00 0.00 83 1026.7
20260502040017 37 215 0.0 1.0 0.00 0.00 0.00 86 1026.7
20260502034516 36 193 0.0 0.0 0.00 0.00 0.00 86 1026.7
20260502033018 36 205 0.0 1.0 0.00 0.00 0.00 86 1026.7
20260502031512 37 205 0.0 1.0 0.00 0.00 0.00 85 1026.7
20260502030019 37 210 0.0 1.0 0.00 0.00 0.00 85 1026.8
20260502024507 37 206 0.0 0.0 0.00 0.00 0.00 85 1026.9
20260502023007 38 206 0.0 0.0 0.00 0.00 0.00 85 1027.0
20260502021503 38 206 0.0 1.0 0.00 0.00 0.00 84 1027.1
20260502020001 38 180 0.0 1.0 0.00 0.00 0.00 84 1027.1
20260502014559 39 176 0.0 0.0 0.00 0.00 0.00 83 1027.2
20260502013059 39 177 0.0 1.0 0.00 0.00 0.00 83 1027.2
20260502011556 39 203 0.0 3.0 0.00 0.00 0.00 83 1027.3
20260502010053 39 208 0.0 2.0 0.00 0.00 0.00 83 1027.4
20260502004550 40 204 0.0 1.0 0.00 0.00 0.00 82 1027.4
20260502003048 40 229 0.0 1.0 0.00 0.00 0.00 82 1027.4
20260502001546 40 221 0.0 2.0 0.00 0.00 0.00 81 1027.5
20260502000050 41 191 1.0 3.0 0.00 0.00 0.00 81 1027.6
20260501234542 41 206 0.0 1.0 0.00 0.00 0.00 80 1027.6
20260501233040 42 206 0.0 1.0 0.00 0.00 0.00 80 1027.7